Terug naar catalogus

FENGYUN 1C DEB

ActiefSSO
NORAD 35090·DEBRIS·🇨🇳 China

Gelanceerd May 10, 1999 vanaf Taiyuan Satellite Launch Center

Loading…

Volgende Passages (komende 24 uur)

TLE

VersSource: Space-Track

Epoch: Sep 14, 2026, 01:18 UTC

1 35090U 99025DJS 26257.05420219  .00001556  00000-0  75854-3 0  9996
2 35090  99.1859 284.5523 0053807 316.4489  43.2443 14.18943578701533

Volg FENGYUN 1C DEB in realtime met AllMySat

Download on the App Store